Location: Ferques
(50.8300°N, 1.7599°E)
Time: 06:09:29
(UTC+00:00)

Helios 1B - Pass Details

Date: 19 May 2025
Orbit: 608 x 609 km, 98.2° (Epoch: 13 June)

Event Time Altitude Azimuth Distance (km) Brightness Sun altitude
Rises 22:31:36 0° 14° (NNE) 2,886 9.0 -17.1°
Reaches altitude 10° 22:33:47 10° 14° (NNE) 1,976 8.0 -17.3°
Maximum altitude 22:38:05 86° 290° (WNW) 619 4.5 -17.5°
Enters shadow 22:40:11 30° 199° (SSW) 1,102 5.4 -17.6°
